�������l�o���
Date,Time,MP-1(��Sv/h),MP-2(��Sv/h),MP-3(��Sv/h),MP-4(��Sv/h),MP-5(��Sv/h),MP-6(��Sv/h),MP-7(��Sv/h),MP-8(��Sv/h),����,����(m/s),���J
2020/04/24,00:00,0.690,0.996,0.654,1.202,0.850,0.397,0.690,0.655,���k��,10.5,��
2020/04/24,00:10,0.690,0.996,0.656,1.203,0.849,0.397,0.690,0.656,���k��,9.4,��
2020/04/24,00:20,0.692,0.995,0.654,1.200,0.851,0.397,0.691,0.655,���k��,7.6,��
2020/04/24,00:30,0.690,0.994,0.655,1.199,0.850,0.398,0.691,0.655,��,8.6,��
2020/04/24,00:40,0.688,0.995,0.657,1.201,0.849,0.398,0.691,0.655,���k��,10.2,��
2020/04/24,00:50,0.689,0.996,0.656,1.201,0.849,0.396,0.692,0.656,���k��,9.2,��
2020/04/24,01:00,0.688,0.997,0.655,1.204,0.850,0.397,0.690,0.655,���k��,11.1,��
2020/04/24,01:10,0.689,0.996,0.657,1.200,0.850,0.395,0.692,0.655,���k��,11.0,��
2020/04/24,01:20,0.690,0.997,0.654,1.202,0.851,0.398,0.691,0.655,��,10.6,��
2020/04/24,01:30,0.690,0.996,0.654,1.201,0.851,0.396,0.692,0.656,��,10.6,��
2020/04/24,01:40,0.690,0.997,0.656,1.202,0.851,0.397,0.689,0.655,��,10.0,��
2020/04/24,01:50,0.691,0.995,0.655,1.202,0.851,0.398,0.690,0.655,��,10.5,��
2020/04/24,02:00,0.690,0.998,0.657,1.203,0.849,0.397,0.691,0.656,��,10.4,��
2020/04/24,02:10,0.690,0.997,0.655,1.200,0.851,0.396,0.691,0.656,��,10.5,��
2020/04/24,02:20,0.690,0.996,0.655,1.202,0.852,0.397,0.691,0.655,��,9.9,��
2020/04/24,02:30,0.690,0.997,0.656,1.203,0.853,0.398,0.692,0.655,��,15.5,��
2020/04/24,02:40,0.689,0.994,0.656,1.203,0.851,0.398,0.691,0.654,��,13.8,��
2020/04/24,02:50,0.691,0.997,0.656,1.203,0.851,0.398,0.689,0.655,��,10.3,��
2020/04/24,03:00,0.689,0.993,0.654,1.202,0.850,0.396,0.690,0.656,��,9.5,��
2020/04/24,03:10,0.687,0.994,0.654,1.202,0.852,0.398,0.689,0.655,��,9.6,��
2020/04/24,03:20,0.689,0.993,0.654,1.203,0.851,0.396,0.691,0.655,��,9.2,��
2020/04/24,03:30,0.690,0.994,0.655,1.201,0.851,0.397,0.691,0.656,��,8.3,��
2020/04/24,03:40,0.689,0.996,0.656,1.202,0.851,0.395,0.690,0.654,��,9.0,��
2020/04/24,03:50,0.691,0.993,0.655,1.204,0.851,0.397,0.690,0.655,��,10.0,��
2020/04/24,04:00,0.689,0.995,0.656,1.203,0.853,0.397,0.689,0.655,��,10.5,��
2020/04/24,04:10,0.689,0.997,0.654,1.202,0.851,0.397,0.691,0.654,���k��,10.9,��
2020/04/24,04:20,0.690,0.994,0.654,1.201,0.849,0.397,0.692,0.655,���k��,11.0,��
2020/04/24,04:30,0.691,0.994,0.655,1.202,0.852,0.397,0.690,0.655,���k��,10.7,��
2020/04/24,04:40,0.690,0.995,0.654,1.202,0.848,0.398,0.692,0.654,���k��,12.4,��
2020/04/24,04:50,0.688,0.995,0.654,1.202,0.851,0.398,0.691,0.657,��,11.3,��
2020/04/24,05:00,0.691,0.995,0.656,1.204,0.852,0.396,0.690,0.655,��,10.6,��
2020/04/24,05:10,0.690,0.995,0.654,1.204,0.851,0.397,0.692,0.657,��,11.4,��
2020/04/24,05:20,0.691,0.996,0.654,1.201,0.851,0.397,0.690,0.655,��,10.6,��
2020/04/24,05:30,0.691,0.996,0.655,1.203,0.849,0.397,0.690,0.657,��,10.6,��
2020/04/24,05:40,0.689,0.996,0.652,1.201,0.849,0.397,0.693,0.657,��,11.3,��
2020/04/24,05:50,0.689,0.996,0.654,1.205,0.850,0.397,0.692,0.655,��,11.3,��
2020/04/24,06:00,0.691,0.995,0.655,1.205,0.849,0.398,0.690,0.656,��,13.8,��
2020/04/24,06:10,0.690,0.998,0.656,1.203,0.852,0.397,0.692,0.656,���k��,13.5,��
2020/04/24,06:20,0.690,0.997,0.655,1.203,0.851,0.397,0.691,0.656,���k��,7.1,��
2020/04/24,06:30,0.689,0.996,0.657,1.202,0.852,0.398,0.691,0.655,��,7.4,��
2020/04/24,06:40,0.690,0.996,0.656,1.205,0.852,0.397,0.690,0.657,��,6.0,��
2020/04/24,06:50,0.691,0.998,0.656,1.203,0.851,0.397,0.692,0.657,��,6.5,��
2020/04/24,07:00,0.692,0.997,0.656,1.204,0.851,0.397,0.690,0.657,��,6.3,��
2020/04/24,07:10,0.691,0.998,0.656,1.205,0.851,0.397,0.691,0.656,��,7.2,��
2020/04/24,07:20,0.691,0.997,0.655,1.205,0.850,0.395,0.691,0.657,��,8.1,��
2020/04/24,07:30,0.693,0.997,0.654,1.204,0.851,0.396,0.692,0.656,��,7.9,��
2020/04/24,07:40,0.692,0.995,0.656,1.203,0.850,0.396,0.692,0.656,��,6.4,��
2020/04/24,07:50,0.691,0.994,0.655,1.207,0.852,0.394,0.693,0.656,���k��,5.9,��
2020/04/24,08:00,0.694,0.996,0.656,1.205,0.854,0.394,0.692,0.658,��,8.1,��
2020/04/24,08:10,0.692,0.995,0.656,1.207,0.853,0.394,0.692,0.657,��,8.9,��
2020/04/24,08:20,0.691,0.993,0.657,1.207,0.854,0.395,0.690,0.658,��,8.9,��
2020/04/24,08:30,0.691,0.994,0.655,1.202,0.852,0.396,0.690,0.652,���k��,9.6,��
2020/04/24,08:40,0.693,0.994,0.656,1.202,0.854,0.393,0.691,0.655,���k��,6.6,��
2020/04/24,08:50,0.694,0.995,0.657,1.202,0.853,0.393,0.691,0.655,���k��,7.0,��
2020/04/24,09:00,0.694,0.991,0.656,1.204,0.854,0.396,0.688,0.652,��,3.9,��
2020/04/24,09:10,0.693,0.991,0.657,1.203,0.851,0.396,0.689,0.653,��,4.2,��
2020/04/24,09:20,0.694,0.989,0.657,1.203,0.851,0.395,0.689,0.652,��,3.7,��
2020/04/24,09:30,0.693,0.991,0.655,1.203,0.852,0.395,0.687,0.653,�k��,1.9,��
2020/04/24,09:40,0.695,0.989,0.658,1.204,0.852,0.394,0.691,0.653,�k��,3.2,��
2020/04/24,09:50,0.693,0.988,0.658,1.205,0.853,0.397,0.687,0.653,���k��,6.0,��
2020/04/24,10:00,0.692,0.990,0.655,1.205,0.856,0.395,0.688,0.654,�k��,5.9,��
2020/04/24,10:10,0.694,0.993,0.657,1.204,0.853,0.396,0.689,0.652,���k��,6.9,��
2020/04/24,10:20,0.694,0.989,0.656,1.205,0.855,0.397,0.689,0.653,�k��,5.4,��
2020/04/24,10:30,0.692,0.992,0.656,1.204,0.853,0.396,0.689,0.651,�k��,5.1,��
2020/04/24,10:40,0.695,0.994,0.657,1.203,0.854,0.396,0.689,0.653,���k��,6.2,��
2020/04/24,10:50,0.692,0.992,0.658,1.205,0.853,0.397,0.690,0.655,�k��,5.9,��
2020/04/24,11:00,0.694,0.992,0.658,1.206,0.851,0.395,0.688,0.655,���k��,5.4,��
2020/04/24,11:10,0.695,0.990,0.656,1.204,0.852,0.398,0.689,0.655,�k��,5.3,��
2020/04/24,11:20,0.693,0.992,0.658,1.208,0.853,0.395,0.689,0.653,�k��,4.9,��
2020/04/24,11:30,0.693,0.993,0.656,1.204,0.853,0.396,0.690,0.653,�k��,5.0,��
2020/04/24,11:40,0.692,0.990,0.656,1.206,0.852,0.397,0.689,0.653,���k��,4.8,��
2020/04/24,11:50,0.693,0.993,0.656,1.207,0.850,0.398,0.692,0.654,���k��,4.2,��
2020/04/24,12:00,0.694,0.995,0.654,1.207,0.851,0.397,0.690,0.652,��,4.6,��
2020/04/24,12:10,0.693,0.994,0.655,1.207,0.853,0.397,0.689,0.654,���쓌,4.1,��
2020/04/24,12:20,0.695,0.992,0.656,1.207,0.853,0.396,0.691,0.654,���쓌,4.8,��
2020/04/24,12:30,0.692,0.993,0.656,1.206,0.853,0.396,0.690,0.654,�쓌,4.9,��
2020/04/24,12:40,0.694,0.995,0.656,1.207,0.851,0.397,0.689,0.654,���쓌,4.3,�L
2020/04/24,12:50,0.692,0.994,0.656,1.206,0.851,0.398,0.690,0.655,�쓌,3.3,�L
2020/04/24,13:00,0.693,0.995,0.655,1.204,0.854,0.397,0.688,0.653,���쓌,4.3,�L
2020/04/24,13:10,0.692,0.994,0.656,1.206,0.853,0.398,0.689,0.653,���쓌,2.8,�L
2020/04/24,13:20,0.693,0.993,0.656,1.205,0.851,0.396,0.690,0.653,���쓌,3.5,�L
2020/04/24,13:30,0.695,0.994,0.655,1.206,0.853,0.397,0.690,0.654,���쓌,2.9,�L
2020/04/24,13:40,0.690,0.995,0.656,1.206,0.853,0.396,0.690,0.653,���쓌,4.6,�L
2020/04/24,13:50,0.692,0.995,0.657,1.207,0.855,0.398,0.690,0.654,���쓌,3.8,�L
2020/04/24,14:00,0.693,0.996,0.657,1.205,0.851,0.397,0.689,0.655,��,3.9,�L
2020/04/24,14:10,0.693,0.996,0.657,1.207,0.852,0.397,0.691,0.653,���쓌,5.5,��
2020/04/24,14:20,0.694,0.997,0.657,1.204,0.853,0.398,0.690,0.654,�쓌,4.5,�L
2020/04/24,14:30,0.692,0.996,0.655,1.205,0.854,0.397,0.690,0.655,�쓌,2.9,�L
2020/04/24,14:40,0.694,0.998,0.654,1.207,0.854,0.398,0.689,0.655,���쓌,2.5,�L
2020/04/24,14:50,0.692,0.994,0.657,1.207,0.853,0.399,0.689,0.655,�쓌,2.8,�L
2020/04/24,15:00,0.692,0.986,0.655,1.203,0.847,0.400,0.688,0.655,�쓌,4.2,�L
2020/04/24,15:10,0.691,0.982,0.652,1.197,0.844,0.403,0.688,0.655,��쓌,2.5,�L
2020/04/24,15:20,0.687,0.976,0.652,1.194,0.841,0.404,0.688,0.654,��,1.7,�L
2020/04/24,15:30,0.684,0.972,0.654,1.187,0.840,0.407,0.688,0.655,�쐼,3.2,�L
2020/04/24,15:40,0.686,0.972,0.655,1.182,0.840,0.406,0.686,0.657,��,5.8,�L
2020/04/24,15:50,0.691,0.977,0.656,1.183,0.844,0.407,0.685,0.656,��쐼,9.7,�L
2020/04/24,16:00,0.690,0.975,0.658,1.183,0.844,0.408,0.684,0.656,��쐼,11.3,�L
2020/04/24,16:10,0.692,0.976,0.657,1.183,0.845,0.406,0.686,0.656,��,8.5,�L
2020/04/24,16:20,0.691,0.976,0.655,1.182,0.843,0.407,0.684,0.653,��,7.2,�L
2020/04/24,16:30,0.688,0.971,0.654,1.180,0.842,0.403,0.684,0.653,��쐼,7.1,��
2020/04/24,16:40,0.686,0.973,0.650,1.180,0.838,0.402,0.684,0.655,��쐼,6.2,��
2020/04/24,16:50,0.686,0.970,0.650,1.177,0.840,0.401,0.684,0.653,�쐼,6.2,�L
2020/04/24,17:00,0.683,0.968,0.649,1.175,0.838,0.402,0.683,0.652,��쐼,6.2,�L
2020/04/24,17:10,0.683,0.970,0.649,1.179,0.838,0.402,0.683,0.652,��쐼,6.1,�L
2020/04/24,17:20,0.682,0.967,0.648,1.174,0.837,0.403,0.684,0.653,��쐼,6.5,�L
2020/04/24,17:30,0.683,0.963,0.645,1.173,0.836,0.400,0.683,0.652,��쐼,7.1,�L
2020/04/24,17:40,0.680,0.962,0.646,1.173,0.835,0.399,0.682,0.651,��쐼,6.5,�L
2020/04/24,17:50,0.678,0.961,0.646,1.173,0.834,0.397,0.681,0.651,�쐼,6.5,�L
2020/04/24,18:00,0.677,0.960,0.643,1.170,0.834,0.397,0.682,0.652,��쐼,7.6,�L
2020/04/24,18:10,0.677,0.960,0.642,1.172,0.831,0.394,0.682,0.651,��쐼,6.7,�L
2020/04/24,18:20,0.675,0.957,0.641,1.169,0.831,0.396,0.681,0.649,��쐼,6.3,�L
2020/04/24,18:30,0.676,0.957,0.643,1.172,0.830,0.395,0.681,0.649,��쐼,5.7,�L
2020/04/24,18:40,0.674,0.955,0.642,1.169,0.831,0.396,0.681,0.648,��쐼,5.1,�L
2020/04/24,18:50,0.673,0.956,0.641,1.169,0.829,0.395,0.680,0.649,��쐼,5.4,�L
2020/04/24,19:00,0.671,0.955,0.641,1.170,0.829,0.395,0.680,0.649,��쐼,4.6,�L
2020/04/24,19:10,0.675,0.957,0.641,1.171,0.830,0.395,0.681,0.650,��쐼,4.3,�L
2020/04/24,19:20,0.674,0.957,0.643,1.169,0.830,0.394,0.683,0.650,��쐼,4.4,�L
2020/04/24,19:30,0.676,0.957,0.642,1.172,0.831,0.395,0.679,0.651,�쐼,4.3,�L
2020/04/24,19:40,0.677,0.957,0.645,1.171,0.830,0.397,0.682,0.651,�쐼,3.7,�L
2020/04/24,19:50,0.676,0.958,0.645,1.174,0.832,0.396,0.682,0.649,�쐼,3.1,�L
2020/04/24,20:00,0.681,0.960,0.642,1.170,0.830,0.396,0.682,0.650,�쐼,3.1,�L
2020/04/24,20:10,0.675,0.959,0.644,1.171,0.831,0.398,0.681,0.650,�쐼,3.6,�L
2020/04/24,20:20,0.677,0.958,0.644,1.174,0.831,0.396,0.681,0.650,�쐼,4.2,�L
2020/04/24,20:30,0.676,0.958,0.642,1.171,0.828,0.394,0.681,0.650,���쐼,4.5,��
2020/04/24,20:40,0.675,0.955,0.640,1.169,0.829,0.396,0.679,0.650,���쐼,5.0,��
2020/04/24,20:50,0.674,0.956,0.640,1.168,0.831,0.393,0.681,0.650,���쐼,5.3,��
2020/04/24,21:00,0.672,0.957,0.639,1.167,0.828,0.394,0.680,0.649,��,5.6,��
2020/04/24,21:10,0.672,0.956,0.639,1.168,0.830,0.394,0.681,0.651,���쐼,5.6,��
2020/04/24,21:20,0.671,0.954,0.638,1.168,0.827,0.393,0.681,0.648,��,5.0,�L
2020/04/24,21:30,0.671,0.954,0.638,1.168,0.829,0.392,0.680,0.648,��,4.0,�L
2020/04/24,21:40,0.674,0.952,0.639,1.167,0.827,0.392,0.680,0.649,���k��,3.4,�L
2020/04/24,21:50,0.673,0.952,0.639,1.167,0.830,0.394,0.679,0.647,���쐼,2.8,�L
2020/04/24,22:00,0.672,0.952,0.640,1.167,0.827,0.392,0.678,0.648,���쐼,3.2,�L
2020/04/24,22:10,0.673,0.954,0.640,1.169,0.827,0.395,0.680,0.648,��,2.6,�L
2020/04/24,22:20,0.673,0.954,0.640,1.167,0.827,0.394,0.682,0.647,���쐼,2.3,�L
2020/04/24,22:30,0.674,0.955,0.641,1.167,0.827,0.395,0.679,0.648,���쐼,2.2,�L
2020/04/24,22:40,0.673,0.955,0.641,1.169,0.828,0.394,0.681,0.648,���쐼,2.2,�L
2020/04/24,22:50,0.673,0.952,0.641,1.170,0.828,0.395,0.681,0.648,���쐼,1.5,�L
2020/04/24,23:00,0.672,0.955,0.642,1.169,0.829,0.396,0.680,0.649,��쐼,1.9,�L
2020/04/24,23:10,0.673,0.953,0.641,1.166,0.828,0.394,0.680,0.649,��,1.4,�L
2020/04/24,23:20,0.674,0.954,0.640,1.168,0.825,0.396,0.678,0.648,��,1.9,�L
2020/04/24,23:30,0.673,0.954,0.640,1.167,0.825,0.394,0.680,0.648,��,1.5,��
2020/04/24,23:40,0.673,0.952,0.639,1.165,0.827,0.394,0.678,0.646,�쐼,0.9,��
2020/04/24,23:50,0.670,0.951,0.635,1.165,0.827,0.393,0.679,0.649,��,0.9,��
